Location: Krasnoyarskiy Pitomnik
(51.1333°N, 71.6167°E)
Time: 14:58:49
(UTC+00:00)

USA 229 DEB - Pass Details

Date: 22 October 2021
Orbit: 944 x 1268 km, 63.4° (Epoch: 25 November)

Event Time Altitude Azimuth Distance (km) Brightness Sun altitude
Rises 13:31:28 0° 183° (S) 3,626 6.5 -14.0°
Reaches altitude 10° 13:34:15 10° 172° (S) 2,710 5.8 -14.4°
Maximum altitude 13:39:37 30° 114° (ESE) 1,732 4.3 -15.3°
Enters shadow 13:42:34 21° 75° (ENE) 2,126 4.7 -15.7°
